Find NTS 2

NORAD ID: 10091 Int'l Des: 1977-053 Owner: SAMSO/USN Country: US operational
MEOCIRCULAR

Live Position

Loading 3D Globe...

About NTS 2

Description loading...

Upcoming Passes

Passes for default location (London). Set your location on the main map for personalized predictions.

Altitude History

Loading altitude history...

Two-Line Element Set

1 10091U 77053A 26098.09347939 .00000019 00000-0 00000+0 0 9991
2 10091 63.1265 283.3043 0072374 219.9597 346.4833 2.00454005357279
Epoch: Apr 8, 2026 • Age: 214 hours

Current Status

Altitude 20068.9 km
Velocity 3.89 km/s
Sub-Earth Point 9.49°N, 115.09°W
Launch Date Jun 23, 1977
Age 48.8 years
Type other

Technical Details

Classification Payload
Mass 430.00 kg
Dry Mass 430.00 kg
Total Mass 430.00 kg
Length 0.80 m
Diameter 1.70 m
Span 37.00 m
Shape Oct Cyl + 2 Pan + 2 Ant
Manufacturer NRL
Bus Type NTS
Phase Status In Orbit
Owner/State SAMSO/USN/US

Most Searched